Marion-Critt Cnty AP, Marion,, KY

12:52 AM CDT on October 22, 2017 (GMT -0500)
Marion-Critt Cnty AP, Marion,

Weather History for K5M9 - January, 2014

Change the Weather History Date:

Sunday, January 26, 2014

  Actual Average (KEHR) Record (KEHR)
Temperature  
Mean Temperature 40 °F -  
Max Temperature 58 °F 41 °F 73 °F (1950)
Min Temperature 21 °F 23 °F -10 °F (1940)
Degree Days  
Heating Degree Days 26    
Moisture  
Dew Point 24 °F    
Average Humidity 48    
Maximum Humidity 66    
Minimum Humidity 38    
Precipitation  
Precipitation 0.00 in - - ()
Sea Level Pressure  
Sea Level Pressure 29.73 in    
Wind  
Wind Speed 8 mph (SW)    
Max Wind Speed 23 mph    
Max Gust Speed 32 mph    
Visibility 10 miles    
Events      
Averages and records for this station are not official NWS values.
T = Trace of Precipitation, MM = Missing Value Source: NWS Daily Summary

Daily Weather History Graph

Daily Weather History Graph

Search for Another Location

Airport or City:

Trip Planner

Search our weather history database for the weather conditions in past years. The results will help you decide how hot, cold, wet, or windy it might be!

Date:

Astronomy

Jan. 26, 2014 Rise Set
Actual Time 7:00 AM CST 5:10 PM CST
Civil Twilight 6:32 AM CST 5:38 PM CST
Nautical Twilight 6:00 AM CST 6:09 PM CST
Astronomical Twilight 5:29 AM CST 6:40 PM CST
Moon 2:36 AM CST (1/26) 1:00 PM CST (1/26)
Length of Visible Light 11h 05m
Length of Day
10h 10m
Waning Crescent, 23% of the Moon is Illuminated
Jan 26
Waning Crescent
Jan 30
New
Feb 6
First Quarter
Feb 14
Full
Feb 22
Last Quarter

Hourly Weather History & Observations

Time (CST) Temp. Windchill Dew Point Humidity Pressure Visibility Wind Dir Wind Speed Gust Speed Precip Events Conditions
12:15 AM 21.7 °F - 4.3 °F 47% 29.94 in 10.0 mi Calm Calm - N/A   Clear
12:35 AM 21.4 °F - 4.6 °F 49% 29.94 in 10.0 mi Calm Calm - N/A   Scattered Clouds
12:55 AM 22.5 °F - 7.5 °F 53% 29.93 in 10.0 mi Calm Calm - N/A   Mostly Cloudy
1:15 AM 21.6 °F 16.8 °F 11.8 °F 66% 29.92 in 10.0 mi SE 3.5 mph - N/A   Overcast
1:35 AM 22.5 °F 17.8 °F 11.7 °F 63% 29.91 in 10.0 mi South 3.5 mph - N/A   Overcast
1:55 AM 23.4 °F 18.9 °F 9.5 °F 55% 29.92 in 10.0 mi South 3.5 mph - N/A   Overcast
2:15 AM 24.3 °F 19.9 °F 9.3 °F 53% 29.91 in 10.0 mi South 3.5 mph - N/A   Overcast
2:35 AM 24.8 °F 20.5 °F 7.9 °F 49% 29.91 in 10.0 mi SSE 3.5 mph - N/A   Mostly Cloudy
2:55 AM 25.2 °F - 7.7 °F 48% 29.90 in 10.0 mi Calm Calm - N/A   Mostly Cloudy
3:15 AM 24.8 °F 20.5 °F 9.0 °F 51% 29.89 in 10.0 mi South 3.5 mph - N/A   Overcast
3:35 AM 24.4 °F 20.1 °F 7.7 °F 49% 29.89 in 10.0 mi South 3.5 mph - N/A   Mostly Cloudy
3:55 AM 24.3 °F 18.4 °F 7.5 °F 49% 29.89 in 10.0 mi South 4.6 mph - N/A   Mostly Cloudy
4:15 AM 23.2 °F 17.2 °F 7.5 °F 51% 29.87 in 10.0 mi South 4.6 mph - N/A   Scattered Clouds
4:35 AM 23.0 °F 15.8 °F 8.2 °F 53% 29.86 in 10.0 mi South 5.8 mph - N/A   Mostly Cloudy
4:55 AM 23.9 °F 15.0 °F 9.3 °F 54% 29.82 in 10.0 mi South 8.1 mph - N/A   Overcast
5:15 AM 24.8 °F 13.4 °F 8.6 °F 50% 29.77 in 10.0 mi South 12.7 mph 19.6 mph N/A   Mostly Cloudy
5:35 AM 26.1 °F 17.6 °F 8.6 °F 48% 29.76 in 10.0 mi South 8.1 mph 20.7 mph N/A   Clear
5:55 AM 26.6 °F 17.5 °F 8.1 °F 46% 29.76 in 10.0 mi South 9.2 mph 19.6 mph N/A   Scattered Clouds
6:15 AM 26.8 °F 16.5 °F 9.0 °F 47% 29.75 in 10.0 mi South 11.5 mph 19.6 mph N/A   Overcast
6:35 AM 27.5 °F 18.0 °F 9.1 °F 46% 29.75 in 10.0 mi South 10.4 mph 16.1 mph N/A   Overcast
6:55 AM 28.4 °F 21.2 °F 9.1 °F 44% 29.75 in 10.0 mi SSW 6.9 mph 16.1 mph N/A   Overcast
7:15 AM 27.9 °F 19.1 °F 10.2 °F 48% 29.74 in 10.0 mi South 9.2 mph - N/A   Scattered Clouds
7:35 AM 28.8 °F 20.2 °F 11.5 °F 49% 29.73 in 10.0 mi South 9.2 mph - N/A   Clear
7:55 AM 31.3 °F 22.7 °F 12.0 °F 45% 29.73 in 10.0 mi South 10.4 mph 18.4 mph N/A   Clear
8:15 AM 33.1 °F 24.4 °F 12.9 °F 43% 29.72 in 10.0 mi SSW 11.5 mph 21.9 mph N/A   Clear
8:35 AM 34.9 °F 27.1 °F 15.1 °F 44% 29.72 in 10.0 mi SSW 10.4 mph 20.7 mph N/A   Clear
8:55 AM 36.1 °F 27.7 °F 16.7 °F 45% 29.73 in 10.0 mi SSW 12.7 mph 20.7 mph N/A   Clear
9:15 AM 38.7 °F 32.4 °F 19.0 °F 45% 29.72 in 10.0 mi SSW 9.2 mph 21.9 mph N/A   Clear
9:35 AM 40.8 °F 34.5 °F 20.8 °F 45% 29.73 in 10.0 mi SSW 10.4 mph 20.7 mph N/A   Clear
9:55 AM 44.1 °F 38.1 °F 24.1 °F 45% 29.73 in 10.0 mi SW 11.5 mph 23.0 mph N/A   Clear
10:15 AM 46.6 °F - 26.6 °F 46% 29.73 in 10.0 mi SW 20.7 mph 29.9 mph N/A   Clear
10:35 AM 47.3 °F - 27.1 °F 46% 29.74 in 10.0 mi SW 18.4 mph 27.6 mph N/A   Clear
10:55 AM 48.9 °F - 28.0 °F 44% 29.73 in 10.0 mi SW 15.0 mph 25.3 mph N/A   Clear
11:15 AM 51.1 °F - 28.9 °F 43% 29.72 in 10.0 mi SW 16.1 mph 21.9 mph N/A   Clear
11:35 AM 52.7 °F - 29.7 °F 41% 29.71 in 10.0 mi SW 23.0 mph 32.2 mph N/A   Clear
11:55 AM 53.4 °F - 29.8 °F 40% 29.69 in 10.0 mi WSW 18.4 mph 26.5 mph N/A   Clear
12:15 PM 54.3 °F - 30.2 °F 40% 29.69 in 10.0 mi WSW 13.8 mph 24.2 mph N/A   Clear
12:35 PM 55.4 °F - 31.1 °F 40% 29.67 in 10.0 mi West 16.1 mph 21.9 mph N/A   Clear
12:55 PM 55.8 °F - 31.5 °F 40% 29.66 in 10.0 mi SW 16.1 mph 25.3 mph N/A   Clear
1:15 PM 56.3 °F - 31.8 °F 39% 29.65 in 10.0 mi WSW 17.3 mph 24.2 mph N/A   Clear
1:35 PM 57.2 °F - 32.0 °F 38% 29.65 in 10.0 mi SW 16.1 mph 20.7 mph N/A   Clear
1:55 PM 57.2 °F - 32.0 °F 38% 29.64 in 10.0 mi WSW 16.1 mph 25.3 mph N/A   Clear
2:15 PM 57.6 °F - 32.0 °F 38% 29.62 in 10.0 mi WSW 13.8 mph 19.6 mph N/A   Clear
2:35 PM 58.3 °F - 32.5 °F 38% 29.62 in 10.0 mi SW 17.3 mph 24.2 mph N/A   Clear
2:55 PM 58.1 °F - 32.9 °F 39% 29.62 in 10.0 mi SW 17.3 mph 24.2 mph N/A   Clear
3:15 PM 58.1 °F - 33.1 °F 39% 29.62 in 10.0 mi SW 16.1 mph 25.3 mph N/A   Clear
3:35 PM 57.7 °F - 33.3 °F 40% 29.61 in 10.0 mi SW 18.4 mph 29.9 mph N/A   Clear
3:55 PM 57.0 °F - 33.3 °F 41% 29.61 in 10.0 mi SW 17.3 mph 28.8 mph N/A   Clear
4:15 PM 56.5 °F - 33.4 °F 42% 29.61 in 10.0 mi SW 15.0 mph 25.3 mph N/A   Clear
4:35 PM 56.3 °F - 33.8 °F 43% 29.62 in 10.0 mi SW 13.8 mph 24.2 mph N/A   Clear
4:55 PM 55.6 °F - 34.0 °F 44% 29.62 in 10.0 mi SW 11.5 mph 18.4 mph N/A   Clear
5:15 PM 55.2 °F - 34.0 °F 45% 29.62 in 10.0 mi SW 11.5 mph 20.7 mph N/A   Clear
5:35 PM 54.5 °F - 34.2 °F 46% 29.63 in 10.0 mi SW 10.4 mph 18.4 mph N/A   Clear
5:55 PM 54.3 °F - 34.7 °F 48% 29.64 in 10.0 mi SW 13.8 mph 20.7 mph N/A   Clear
6:15 PM 53.6 °F - 34.3 °F 48% 29.64 in 10.0 mi SSW 12.7 mph 25.3 mph N/A   Clear
6:35 PM 53.2 °F - 34.3 °F 49% 29.64 in 10.0 mi SW 15.0 mph 26.5 mph N/A   Clear
6:55 PM 52.7 °F - 34.2 °F 49% 29.65 in 10.0 mi SW 11.5 mph 20.7 mph N/A   Clear
7:15 PM 52.7 °F - 34.2 °F 49% 29.65 in 10.0 mi SW 13.8 mph 19.6 mph N/A   Clear
7:35 PM 52.7 °F - 34.2 °F 49% 29.65 in 10.0 mi SW 13.8 mph 25.3 mph N/A   Clear
7:55 PM 52.3 °F - 34.2 °F 50% 29.65 in 10.0 mi SW 15.0 mph 21.9 mph N/A   Clear
8:15 PM 52.7 °F - 34.2 °F 49% 29.65 in 10.0 mi SW 13.8 mph 24.2 mph N/A   Clear
8:35 PM 52.2 °F - 34.0 °F 50% 29.67 in 10.0 mi WSW 12.7 mph - N/A   Scattered Clouds
8:55 PM 51.1 °F - 33.8 °F 52% 29.69 in 10.0 mi WNW 9.2 mph - N/A   Mostly Cloudy
9:15 PM 50.5 °F - 34.0 °F 53% 29.70 in 10.0 mi West 11.5 mph 16.1 mph N/A   Overcast
9:35 PM 49.6 °F - 33.8 °F 54% 29.71 in 10.0 mi West 9.2 mph - N/A   Scattered Clouds
9:55 PM 49.1 °F - 34.0 °F 56% 29.72 in 10.0 mi West 10.4 mph - N/A   Clear
10:15 PM 49.1 °F - 34.2 °F 56% 29.72 in 10.0 mi WSW 12.7 mph - N/A   Clear
10:35 PM 49.1 °F - 34.2 °F 56% 29.73 in 10.0 mi WSW 10.4 mph - N/A   Mostly Cloudy
10:55 PM 48.6 °F - 34.2 °F 58% 29.74 in 10.0 mi WSW 10.4 mph 19.6 mph N/A   Overcast
11:15 PM 48.2 °F - 34.2 °F 58% 29.74 in 10.0 mi WSW 8.1 mph - N/A   Mostly Cloudy
11:35 PM 47.3 °F - 34.2 °F 60% 29.76 in 10.0 mi WSW 8.1 mph - N/A   Mostly Cloudy
11:55 PM 46.9 °F - 34.2 °F 61% 29.77 in 10.0 mi WSW 5.8 mph - N/A   Overcast